Temp
21 21 22 22 28 29 30 29 29 28 27 26 27 27 29 26 28 26 16 16 16 16 18 19 19 19 19 19 19 19 19 20 20 19 19 19 19 19 18 18 18 18 18 18 18 17 17 17 17
21 21 22 25 28 30 31 29 28 29 27 25 24 25 26 24 20 17 17 16 16 16 17 19 19 19 19 19 19 19 19 19 19 19 19 19 18 18 18 18 18 18 18 17 17 17 17 17 17
21 21 25 28 29 30 30 29 29 26 25 25 25 24 23 21 18 17 15 15 16 18 19 19 19 19 19 20 19 19 19 19 19 19 19 18 18 18 18 18 17 17 17 17 17 17 17 17 17
21 23 24 27 29 29 28 29 28 26 24 25 26 24 18 16 16 16 17 17 18 18 19 19 19 19 19 19 19 19 19 19 19 19 19 18 18 18 18 18 17 17 17 17 17 17 17 17 17
21 24 27 27 28 28 27 27 27 27 26 25 25 23 20 16 16 16 16 17 18 18 19 19 19 19 19 19 19 19 19 19 19 18 18 18 18 18 17 17 17 17 17 17 17 17 17 17 17
24 24 27 28 29 27 27 26 27 27 25 25 24 23 19 16 15 17 18 17 18 19 19 19 19 19 19 19 19 19 19 18 18 18 18 18 18 17 17 17 17 17 17 17 17 17 17 16 16
24 26 27 27 27 27 27 25 26 26 25 25 24 24 18 16 15 16 17 17 18 18 18 18 18 18 18 18 18 18 18 18 18 18 18 18 18 17 17 17 17 16 16 16 16 16 16 16 16
23 25 25 26 27 27 26 25 26 25 26 22 22 24 21 15 16 17 17 17 18 18 18 18 18 18 18 18 18 18 18 18 18 18 18 17 17 17 17 17 16 16 16 16 16 16 16 16 16
20 24 26 26 25 27 24 25 23 24 23 21 20 21 19 18 16 16 16 17 17 17 17 18 18 18 18 18 18 17 17 17 17 17 17 17 17 16 16 16 16 16 16 15 16 16 16 15 16
23 24 25 25 25 26 25 24 24 23 24 21 20 17 16 17 16 15 15 15 16 17 17 17 18 18 18 18 18 18 17 17 17 16 17 16 16 16 16 16 15 15 15 15 15 15 15 15 15
22 23 24 24 23 23 24 24 24 24 25 24 22 18 15 15 16 15 16 16 15 17 17 18 18 18 18 18 18 17 16 16 16 16 16 16 15 14 14 14 14 14 14 13 13 14 14 14 14
21 22 22 23 22 22 24 23 24 24 25 24 23 18 16 15 15 16 16 15 17 17 17 18 18 18 18 18 17 16 16 15 15 14 15 14 13 13 13 13 14 14 14 14 14 14 14 14 14
21 22 22 21 21 21 22 23 24 23 23 20 21 18 17 16 16 16 15 15 17 17 18 18 18 18 18 17 17 16 15 15 14 14 13 13 12 12 13 13 14 13 13 14 14 14 14 14 14
19 20 20 20 21 21 21 23 22 23 20 20 19 18 18 17 16 15 14 14 17 17 17 18 18 17 17 16 15 15 14 14 13 13 12 12 12 12 12 12 13 13 13 13 13 13 13 13 13
18 19 22 22 21 22 22 23 22 23 20 20 19 19 18 17 16 15 14 14 16 16 17 17 17 17 16 15 14 14 13 13 12 12 12 12 12 11 12 12 12 12 12 12 12 12 13 13 13
19 21 21 23 22 22 21 23 26 24 20 21 20 19 18 17 16 14 13 13 15 15 16 16 16 16 15 14 13 13 13 12 12 11 11 11 11 11 11 11 11 12 12 12 12 12 12 12 12
20 21 22 22 22 23 22 23 25 22 20 22 21 20 18 17 15 14 12 12 13 14 15 15 15 15 14 13 12 12 12 11 11 11 11 11 11 11 11 11 11 11 11 11 11 11 11 11 12
22 20 21 20 23 22 22 23 24 22 20 21 22 21 19 17 16 14 11 11 12 13 14 14 14 14 13 12 12 11 11 10 10 10 10 10 10 10 10 10 10 10 10 10 11 11 11 11 12
20 20 20 21 22 19 21 22 23 23 21 20 21 20 19 18 17 13 10 9 12 13 13 13 13 13 12 11 10 10 10 10 10 10 10 10 10 10 10 10 10 10 10 10 11 10 10 9 11
19 18 19 21 21 19 20 21 23 23 22 21 20 20 19 19 17 13 10 8 10 12 12 12 13 12 11 9 7 8 9 10 9 9 10 10 10 10 10 10 10 10 9 9 9 9 8 6 8
18 18 19 19 20 20 20 20 22 23 22 21 20 20 20 19 18 14 10 8 9 10 11 11 11 12 10 8 9 9 9 9 9 9 9 9 9 9 9 9 9 9 9 9 9 8 8 4 3
17 19 17 17 18 18 19 19 22 23 23 22 20 20 20 20 19 16 11 9 8 8 9 11 11 11 9 9 9 9 7 6 7 8 9 9 9 9 8 8 8 8 8 8 7 6 5 4 2
16 17 16 17 17 18 18 18 22 22 22 23 22 20 19 19 19 17 12 9 8 7 9 10 11 10 9 9 8 8 6 8 9 8 8 8 8 8 8 7 7 7 7 6 6 5 5 4 3
17 16 16 16 17 15 18 19 21 23 21 21 23 21 20 19 18 16 13 9 8 6 7 9 10 9 8 8 8 7 8 9 9 8 7 7 7 6 6 6 6 6 5 5 4 3 3 3 2
15 15 15 15 15 16 19 18 20 22 20 20 20 19 21 18 17 15 12 9 7 6 5 7 8 8 8 7 7 7 8 8 8 8 7 6 6 5 5 5 5 4 4 4 3 3 3 3 2
15 15 14 13 15 17 16 16 20 20 19 18 17 16 16 16 14 13 11 9 7 5 4 6 5 5 6 7 7 7 7 7 7 7 7 6 5 5 4 3 3 3 3 3 3 3 2 2 2
15 13 16 11 11 10 14 17 19 19 18 18 18 17 16 14 13 11 10 8 7 4 3 4 4 5 6 6 6 7 6 7 7 7 6 5 4 4 3 3 3 2 2 2 2 2 2 1 1
15 14 11 10 10 12 16 16 16 17 16 15 15 15 15 15 11 10 9 7 6 4 2 4 5 5 6 6 6 6 5 6 6 5 5 4 4 3 2 2 2 2 2 2 1 1 1 0 0
14 13 13 12 10 11 13 15 19 16 15 15 15 15 14 13 13 10 8 7 4 3 2 3 4 4 5 5 4 4 4 5 4 4 4 3 3 2 1 1 2 2 1 1 0 -0 -1 -0 -2
13 13 12 10 11 10 9 12 17 16 15 15 15 14 14 15 11 10 8 6 4 3 2 2 3 2 3 3 3 3 4 4 3 3 3 3 1 1 1 1 1 1 1 0 -1 -2 -3 -3 -2
Height
1522 1521 1521 1521 1517 1505 1500 1504 1502 1506 1509 1512 1512 1513 1512 1516 1515 1523 1534 1535 1538 1541 1542 1545 1548 1550 1551 1552 1554 1554 1555 1554 1555 1555 1556 1557 1558 1559 1559 1559 1560 1560 1561 1562 1562 1563 1563 1563 1563
1522 1521 1521 1518 1511 1503 1493 1499 1503 1502 1508 1514 1517 1518 1518 1524 1527 1530 1533 1533 1536 1540 1542 1544 1547 1549 1550 1552 1553 1554 1554 1555 1555 1556 1556 1557 1558 1559 1560 1560 1560 1561 1561 1562 1562 1562 1563 1563 1563
1522 1521 1520 1509 1502 1501 1494 1500 1498 1509 1513 1515 1517 1519 1522 1527 1530 1531 1532 1534 1537 1538 1541 1545 1547 1548 1549 1550 1552 1553 1554 1555 1555 1555 1556 1557 1558 1559 1559 1560 1560 1560 1561 1561 1561 1562 1562 1562 1562
1523 1523 1522 1510 1500 1497 1500 1500 1503 1508 1515 1514 1513 1518 1523 1525 1527 1530 1531 1534 1536 1539 1541 1543 1546 1547 1548 1549 1550 1551 1553 1554 1554 1555 1555 1557 1557 1558 1558 1559 1560 1560 1560 1560 1561 1561 1561 1561 1561
1523 1520 1510 1508 1501 1502 1505 1505 1505 1507 1508 1512 1513 1517 1522 1523 1525 1528 1531 1533 1536 1539 1541 1544 1545 1546 1548 1549 1550 1550 1551 1552 1554 1555 1555 1556 1557 1557 1557 1558 1558 1559 1559 1559 1560 1560 1560 1561 1561
1520 1517 1508 1502 1497 1502 1505 1506 1505 1507 1512 1513 1515 1518 1525 1524 1525 1526 1528 1531 1534 1537 1540 1542 1544 1546 1547 1548 1549 1550 1550 1551 1552 1553 1553 1554 1555 1556 1556 1556 1557 1557 1558 1558 1558 1558 1558 1559 1559
1518 1511 1502 1501 1501 1502 1502 1506 1507 1509 1510 1513 1515 1517 1524 1524 1524 1526 1529 1531 1533 1535 1538 1540 1542 1544 1546 1547 1547 1548 1549 1549 1550 1551 1551 1552 1553 1553 1554 1554 1555 1555 1556 1556 1556 1557 1557 1556 1557
1520 1514 1505 1502 1500 1498 1503 1506 1507 1510 1511 1514 1516 1514 1521 1520 1523 1526 1529 1531 1533 1535 1536 1538 1540 1542 1544 1545 1546 1546 1547 1547 1547 1548 1549 1550 1550 1551 1551 1551 1552 1553 1553 1554 1554 1554 1554 1554 1554
1521 1513 1504 1502 1504 1497 1506 1504 1508 1509 1511 1515 1515 1515 1517 1518 1522 1526 1528 1530 1532 1534 1536 1538 1539 1541 1542 1544 1544 1545 1545 1545 1545 1545 1545 1546 1547 1548 1547 1548 1549 1550 1551 1552 1551 1552 1552 1552 1552
1515 1510 1502 1504 1504 1503 1505 1505 1505 1510 1508 1510 1513 1513 1513 1516 1521 1526 1529 1530 1531 1533 1534 1537 1538 1539 1541 1541 1543 1542 1543 1543 1542 1542 1542 1542 1542 1543 1544 1545 1546 1546 1547 1548 1549 1549 1549 1550 1549
1514 1509 1505 1506 1508 1508 1505 1505 1504 1504 1503 1503 1505 1510 1511 1514 1519 1525 1529 1530 1531 1533 1534 1534 1536 1537 1538 1538 1539 1539 1539 1539 1539 1539 1539 1538 1539 1540 1541 1542 1542 1543 1544 1545 1546 1546 1547 1547 1546
1514 1508 1510 1507 1507 1508 1505 1503 1502 1501 1500 1503 1507 1509 1511 1513 1514 1521 1526 1527 1527 1530 1531 1532 1533 1534 1535 1535 1535 1535 1535 1535 1536 1536 1536 1536 1535 1536 1537 1538 1539 1540 1541 1542 1542 1543 1543 1543 1543
1513 1507 1506 1507 1507 1506 1505 1502 1500 1500 1500 1503 1507 1508 1510 1513 1516 1519 1522 1523 1525 1527 1529 1530 1531 1532 1533 1533 1533 1532 1532 1532 1532 1533 1533 1533 1533 1533 1535 1536 1536 1537 1538 1539 1539 1539 1539 1539 1540
1511 1509 1506 1506 1501 1502 1503 1497 1499 1495 1498 1502 1503 1505 1509 1512 1514 1517 1518 1520 1522 1524 1526 1527 1528 1530 1529 1530 1530 1530 1530 1529 1530 1530 1531 1531 1531 1532 1532 1532 1533 1534 1535 1535 1536 1536 1535 1536 1536
1510 1508 1499 1497 1497 1493 1497 1492 1492 1491 1494 1497 1501 1503 1505 1508 1512 1513 1514 1516 1518 1521 1522 1524 1526 1526 1527 1527 1528 1528 1528 1528 1528 1529 1529 1529 1529 1530 1529 1529 1530 1531 1531 1532 1532 1532 1532 1532 1532
1507 1500 1498 1486 1490 1489 1494 1481 1477 1483 1492 1493 1496 1499 1502 1504 1507 1510 1512 1514 1516 1517 1519 1521 1522 1523 1524 1525 1525 1525 1525 1526 1526 1528 1527 1527 1527 1527 1527 1527 1527 1528 1528 1528 1528 1527 1527 1527 1527
1499 1492 1488 1489 1487 1486 1488 1476 1473 1479 1486 1488 1491 1495 1498 1501 1504 1506 1506 1509 1512 1513 1515 1517 1518 1519 1520 1521 1523 1523 1523 1524 1524 1526 1526 1526 1525 1525 1525 1524 1524 1524 1525 1525 1524 1524 1524 1523 1522
1484 1490 1486 1490 1480 1484 1479 1472 1473 1478 1483 1484 1485 1489 1492 1496 1496 1501 1502 1504 1506 1508 1511 1513 1515 1516 1517 1517 1519 1520 1521 1522 1523 1524 1525 1525 1524 1524 1523 1523 1523 1523 1522 1522 1521 1520 1519 1519 1518
1486 1489 1487 1481 1481 1487 1476 1470 1468 1470 1474 1480 1480 1483 1486 1489 1493 1498 1498 1499 1500 1503 1506 1508 1510 1514 1515 1515 1516 1517 1517 1519 1520 1521 1522 1523 1523 1523 1522 1521 1520 1520 1519 1519 1518 1517 1518 1517 1516
1490 1491 1485 1480 1481 1484 1475 1462 1462 1463 1464 1468 1471 1474 1477 1481 1487 1489 1490 1491 1494 1497 1500 1503 1505 1508 1512 1513 1514 1514 1515 1516 1518 1519 1520 1520 1520 1520 1519 1518 1518 1517 1517 1517 1517 1516 1516 1516 1513
1491 1488 1484 1485 1479 1478 1472 1450 1449 1447 1451 1456 1462 1464 1466 1469 1472 1476 1479 1482 1486 1490 1494 1497 1500 1503 1506 1508 1510 1511 1511 1514 1515 1517 1517 1518 1518 1518 1517 1517 1517 1517 1517 1516 1516 1515 1513 1515 1513
1489 1483 1488 1486 1486 1478 1472 1450 1440 1437 1441 1447 1452 1455 1457 1460 1463 1468 1472 1475 1477 1482 1488 1493 1496 1499 1501 1503 1505 1508 1510 1511 1513 1514 1515 1516 1516 1516 1516 1516 1516 1516 1515 1514 1513 1512 1512 1512 1512
1488 1488 1487 1484 1482 1476 1473 1474 1429 1434 1437 1437 1444 1448 1450 1453 1460 1464 1468 1472 1477 1479 1481 1486 1491 1494 1497 1498 1501 1503 1505 1506 1509 1511 1512 1513 1514 1515 1515 1515 1514 1513 1512 1511 1511 1511 1511 1510 1509
1488 1490 1485 1485 1481 1482 1465 1462 1413 1425 1439 1441 1437 1444 1447 1449 1452 1457 1464 1469 1473 1476 1475 1479 1484 1488 1492 1494 1496 1498 1499 1502 1505 1507 1509 1511 1512 1512 1512 1512 1511 1511 1511 1510 1510 1510 1509 1509 1508
1488 1487 1485 1481 1483 1469 1450 1455 1432 1427 1440 1444 1446 1444 1439 1445 1449 1453 1457 1459 1463 1466 1468 1472 1478 1481 1486 1490 1492 1494 1496 1498 1500 1503 1505 1507 1509 1510 1510 1511 1510 1509 1508 1508 1508 1508 1507 1507 1507
1478 1480 1485 1488 1470 1453 1462 1455 1440 1439 1446 1449 1447 1447 1445 1444 1448 1452 1455 1458 1460 1464 1464 1467 1472 1476 1480 1485 1488 1490 1492 1494 1496 1499 1502 1504 1506 1507 1507 1507 1508 1508 1508 1507 1507 1506 1505 1503 1503
1476 1484 1477 1494 1492 1497 1465 1444 1439 1441 1442 1446 1446 1446 1444 1446 1448 1449 1453 1456 1458 1461 1461 1462 1467 1472 1477 1480 1483 1486 1488 1490 1492 1494 1498 1500 1503 1504 1506 1505 1505 1508 1506 1505 1505 1504 1502 1502 1501
1473 1480 1489 1497 1492 1476 1448 1449 1444 1441 1449 1452 1450 1448 1447 1446 1449 1449 1450 1451 1453 1457 1460 1457 1462 1467 1472 1476 1480 1483 1484 1487 1489 1491 1494 1497 1500 1502 1504 1503 1503 1505 1505 1504 1504 1502 1500 1498 1500
1474 1475 1480 1482 1486 1476 1464 1448 1433 1443 1449 1452 1453 1450 1448 1449 1447 1447 1450 1450 1451 1454 1455 1456 1460 1462 1466 1470 1474 1479 1481 1484 1487 1488 1490 1493 1496 1498 1500 1499 1500 1502 1503 1502 1505 1501 1499 1498 1498
1476 1474 1478 1486 1477 1480 1478 1462 1442 1447 1451 1450 1447 1448 1445 1442 1443 1444 1443 1447 1448 1451 1452 1452 1455 1459 1463 1467 1470 1472 1476 1480 1485 1486 1486 1491 1494 1496 1497 1496 1497 1499 1500 1501 1502 1503 1499 1499 1497
Wind_Speed
7 8 7 2 6 5 4 6 2 9 9 5 16 4 7 10 1 3 8 10 14 14 16 16 13 12 11 11 9 8 8 9 10 11 11 11 9 8 8 8 9 8 8 6 5 4 2 2 2
6 7 4 4 7 8 6 6 10 10 11 12 11 9 7 5 7 9 8 12 13 14 14 16 15 13 13 11 11 10 9 9 9 10 10 10 9 8 8 9 9 8 8 8 6 4 3 2 1
4 4 6 4 5 10 2 10 10 9 15 15 9 2 5 7 7 6 10 13 14 17 17 15 15 14 13 13 12 12 10 9 9 9 10 10 10 9 8 8 8 8 8 8 6 5 4 3 2
3 3 4 6 9 2 3 8 13 16 9 11 10 7 7 8 9 9 15 15 17 15 16 15 14 14 14 13 14 13 12 10 9 9 9 9 9 9 8 7 7 7 7 7 7 6 5 4 4
2 4 6 8 9 3 5 4 16 16 14 14 15 8 6 10 12 15 15 16 15 15 15 14 13 13 12 12 13 12 11 12 10 10 9 9 9 9 9 9 9 9 8 8 7 7 6 5 5
7 4 7 9 9 6 5 6 18 14 11 13 9 12 6 11 15 17 18 19 18 16 14 13 12 11 10 10 11 11 11 11 11 11 11 11 12 12 11 11 11 11 10 9 9 8 8 7 7
12 7 10 7 8 8 7 9 17 15 14 13 6 10 5 16 17 17 16 16 16 16 15 14 13 12 11 11 11 11 11 11 12 12 12 13 13 13 14 14 13 13 12 12 12 11 11 11 11
7 6 7 7 8 8 4 11 18 14 12 8 11 7 6 23 22 20 18 17 16 15 15 14 13 12 12 12 12 12 13 13 13 14 14 14 14 14 14 15 16 15 14 14 14 13 13 14 14
3 6 8 8 8 2 6 11 9 13 9 12 10 3 3 24 24 21 20 18 16 15 14 13 12 11 10 9 9 10 12 14 15 16 16 16 16 14 17 16 15 14 14 13 13 14 14 15 14
8 7 6 4 4 5 4 10 13 11 17 14 11 6 13 26 27 22 19 17 17 16 15 13 12 10 8 8 9 11 13 15 16 17 17 17 17 17 17 16 15 14 13 12 12 12 13 14 15
4 10 3 8 6 7 6 8 13 19 19 22 23 19 21 26 27 23 18 15 15 17 15 14 11 9 8 8 11 13 14 15 15 15 15 16 16 15 14 14 13 13 12 10 9 10 6 9 10
9 11 12 12 4 7 10 6 12 19 16 16 16 21 23 26 27 25 21 18 19 18 16 13 11 7 7 10 12 12 12 12 13 14 13 13 12 12 13 13 12 13 13 13 13 12 12 13 12
12 13 10 12 13 14 13 15 12 14 18 7 14 21 24 24 24 23 20 20 21 20 17 14 10 8 9 10 10 10 10 10 11 11 12 11 13 12 12 13 14 13 12 13 14 15 15 15 14
4 10 14 13 16 14 13 18 11 17 11 11 18 22 24 25 25 23 22 23 23 22 19 15 12 11 8 8 8 8 8 8 8 9 9 10 11 12 12 14 15 14 15 16 15 15 15 16 16
10 13 14 17 17 13 12 19 17 20 14 16 19 22 24 25 25 25 23 24 25 21 19 16 14 11 8 7 7 7 7 6 6 7 7 7 7 8 10 11 12 12 13 13 14 14 15 16 19
10 11 12 3 7 15 12 20 18 21 16 19 21 22 25 26 27 24 22 23 23 23 20 18 16 11 10 8 7 7 6 6 5 5 5 5 5 5 5 6 7 7 8 8 9 10 10 12 14
10 12 11 10 8 9 14 14 10 12 18 22 23 24 25 25 26 25 24 25 24 24 22 20 17 13 12 9 8 7 6 6 6 5 4 4 4 4 4 4 4 5 5 6 7 8 9 11 12
13 12 10 11 3 10 17 21 14 11 16 22 24 26 26 28 32 28 25 25 26 25 23 21 18 16 14 12 10 8 7 7 6 5 4 4 3 3 3 2 2 2 3 5 6 7 9 11 13
13 14 15 13 10 12 18 21 17 18 19 21 22 23 27 31 28 26 25 27 29 27 26 23 21 19 16 14 12 11 11 9 7 6 4 3 2 1 1 1 2 4 5 7 9 10 11 11 13
15 17 18 16 14 14 20 26 20 20 24 25 28 29 30 31 28 30 28 29 31 30 28 25 23 21 18 14 13 13 12 11 8 6 5 3 2 1 2 2 3 4 5 6 7 7 6 7 9
17 18 17 17 15 17 21 30 25 22 30 30 30 33 34 36 39 37 34 33 33 31 31 28 25 23 21 18 17 16 13 10 9 7 6 4 3 2 2 2 3 4 4 5 5 7 8 6 8
18 14 12 14 12 12 4 16 14 14 13 15 27 33 37 37 39 38 36 35 35 32 31 29 28 26 24 21 19 16 12 12 11 10 8 6 4 3 2 2 2 3 4 6 8 9 9 8 7
12 6 10 12 13 15 15 10 3 3 7 14 17 27 30 34 33 34 35 33 31 29 32 33 30 28 26 25 22 20 16 16 14 12 9 7 5 4 3 2 3 4 5 7 8 8 8 7 6
6 7 9 8 9 10 15 13 22 7 13 16 5 11 20 27 31 32 31 30 30 28 31 34 32 29 27 26 25 22 20 17 16 14 11 9 7 5 4 3 3 4 5 6 6 6 7 7 7
7 7 6 8 7 8 1 10 17 18 13 10 12 24 16 17 23 27 31 34 33 34 33 33 30 29 28 28 26 24 21 19 18 15 13 10 8 6 4 3 3 4 4 5 5 4 5 5 6
9 13 7 8 8 6 2 10 7 5 9 10 10 13 13 8 13 21 26 30 31 31 31 32 31 28 29 28 27 25 24 21 19 17 15 12 9 7 5 4 3 3 3 3 3 3 4 5 5
4 8 12 8 7 5 10 21 21 8 10 14 12 19 16 11 10 15 21 26 28 31 31 32 29 29 30 29 28 27 25 23 21 19 16 13 10 8 6 5 4 2 2 2 2 3 4 5 5
7 2 1 3 5 7 9 11 10 13 11 15 17 24 24 18 11 11 18 24 27 29 29 32 32 31 31 31 29 27 26 24 22 20 17 14 11 9 8 6 5 2 1 1 2 2 3 3 4
3 7 7 8 6 4 11 12 12 10 14 15 19 24 21 21 16 11 14 19 24 27 29 32 32 32 33 32 29 27 25 24 23 20 17 14 12 10 9 7 4 2 1 0 1 2 4 5 6
10 10 6 4 8 5 6 10 15 13 17 25 24 26 30 31 20 15 15 19 23 27 29 33 33 32 31 30 30 28 26 25 23 20 17 14 12 11 9 7 5 4 2 2 3 3 5 5 6
Wind_Direction
315 319 334 284 242 238 203 177 18 156 165 116 152 183 170 13 116 34 130 152 143 152 169 178 178 173 172 173 170 156 146 135 138 149 154 161 166 167 166 161 162 163 165 170 170 159 151 125 82
315 323 298 259 255 233 181 146 183 163 132 144 139 136 154 89 69 114 129 150 143 151 165 178 179 181 182 182 179 183 173 160 146 145 152 160 169 168 171 167 170 170 171 176 182 178 178 189 163
318 313 264 256 250 252 283 182 166 147 152 160 149 172 144 112 99 133 150 142 146 166 178 180 184 187 188 189 189 192 186 179 171 161 159 165 167 173 173 176 176 179 180 185 198 204 198 213 216
310 253 238 247 239 241 267 175 167 155 178 189 182 149 121 155 153 147 152 157 164 170 175 179 184 194 197 196 198 198 195 195 191 185 179 178 177 179 183 188 190 192 193 197 206 219 222 221 231
257 230 241 257 251 272 233 217 192 181 173 180 186 157 136 170 165 151 159 160 169 177 179 182 187 194 199 205 208 207 206 209 208 208 207 205 201 199 198 201 203 206 208 210 215 223 233 234 238
225 255 233 237 217 227 227 214 192 189 181 169 195 153 136 175 165 165 171 175 175 183 187 192 195 198 203 209 213 216 215 216 219 221 223 223 221 218 216 217 217 218 219 220 225 228 233 238 240
266 245 264 266 259 230 227 201 196 190 186 183 164 170 156 177 170 169 173 176 184 191 197 200 203 206 211 217 220 221 225 227 228 231 234 235 233 232 231 231 231 232 230 230 233 236 238 243 245
274 272 249 231 238 235 168 191 203 201 197 147 173 191 184 190 176 171 173 179 184 189 193 195 198 203 213 221 228 233 235 238 238 239 239 238 238 237 238 238 236 237 237 237 239 243 247 248 252
230 253 262 254 241 218 178 199 205 201 192 197 190 194 177 186 178 174 174 178 183 185 185 186 189 194 203 219 228 235 241 243 244 243 242 240 241 235 239 242 245 247 248 248 248 250 254 257 259
228 246 276 316 289 268 231 222 195 201 197 203 193 183 164 177 181 177 174 174 184 187 185 186 186 191 203 227 244 246 245 245 244 246 246 243 240 240 243 246 243 245 250 256 256 256 259 267 266
204 252 324 252 273 279 284 249 218 221 209 218 208 183 174 176 181 184 184 184 183 189 188 188 190 201 220 250 256 252 249 249 250 251 250 244 243 242 239 238 240 238 237 240 248 258 252 264 269
253 241 260 270 244 277 270 282 224 228 223 236 225 193 181 183 184 185 186 185 191 192 197 197 204 221 261 272 266 259 251 249 250 252 249 244 235 236 238 236 240 246 246 256 261 258 275 275 266
246 262 263 258 271 272 270 259 257 234 227 243 205 186 189 190 191 189 191 193 197 203 204 208 216 237 254 261 259 257 252 248 246 244 240 232 230 224 231 238 242 240 247 250 258 265 266 264 260
309 274 272 270 260 256 264 260 232 236 210 208 191 194 195 197 196 191 191 195 200 205 208 212 221 231 245 257 246 243 242 238 237 238 237 232 230 229 229 233 239 246 256 263 257 256 261 266 271
269 276 267 253 250 245 258 253 227 240 198 199 200 201 200 201 200 201 196 200 203 205 211 212 218 224 235 239 232 234 237 232 233 232 229 225 226 229 233 238 245 251 256 260 265 270 272 275 277
260 257 269 167 248 229 229 259 243 216 199 203 206 205 205 206 204 202 199 202 203 209 209 212 216 216 226 222 218 217 218 218 217 219 214 217 218 222 230 238 245 252 256 261 266 271 274 276 277
217 266 241 277 242 259 223 267 253 178 206 225 215 210 209 207 207 204 204 203 204 210 210 213 214 212 219 208 210 207 207 205 203 205 208 213 215 221 229 244 256 267 281 286 288 291 290 292 294
261 235 246 261 242 251 259 261 249 225 229 231 226 220 212 211 214 206 203 204 207 209 210 212 210 213 212 201 202 201 203 202 200 204 208 204 194 194 197 221 264 294 308 317 323 323 323 315 314
273 271 264 264 261 288 267 270 266 259 220 236 232 225 220 220 215 210 207 207 209 210 210 210 210 213 210 198 193 193 195 196 195 192 186 165 151 144 101 12 355 350 345 339 338 337 331 320 314
254 259 263 275 275 274 274 273 269 258 245 231 231 226 225 225 215 211 208 208 210 211 209 209 210 212 204 193 187 188 189 188 186 183 178 168 147 113 66 35 13 3 354 345 339 335 340 341 339
248 255 269 274 292 276 274 276 263 247 240 236 233 236 230 224 217 212 208 207 209 208 208 208 208 209 203 199 201 196 190 189 186 183 177 165 151 124 81 44 33 23 10 359 3 7 13 9 2
263 267 264 270 272 272 22 289 289 274 263 221 233 236 236 232 226 215 210 207 206 205 206 207 210 209 208 204 201 195 182 174 188 184 180 173 156 130 96 67 48 42 37 31 29 28 31 40 20
274 298 264 272 266 277 254 267 300 154 236 237 229 242 239 236 232 223 216 212 207 200 203 207 210 210 211 203 198 192 183 193 192 187 177 167 160 154 145 114 74 58 47 42 40 37 37 33 38
247 248 242 256 257 257 240 235 287 290 35 350 310 259 253 244 233 227 220 210 207 202 203 206 208 209 209 203 199 193 195 194 189 186 178 172 165 157 150 127 93 69 58 55 51 46 41 40 32
225 234 249 229 209 248 40 218 254 312 8 354 318 307 289 248 233 222 213 207 203 201 200 202 202 203 204 201 198 197 195 192 190 186 182 174 170 168 161 131 95 81 69 60 55 43 32 26 21
226 234 240 259 252 257 114 245 227 21 309 324 343 349 335 286 237 226 217 211 205 203 198 199 198 197 196 197 197 195 194 190 188 188 185 182 177 176 171 145 121 96 76 68 57 42 30 23 14
184 223 248 256 251 283 256 276 285 20 31 346 343 342 339 326 261 230 221 214 208 206 200 198 194 196 198 197 196 195 192 191 189 188 185 182 181 179 174 162 149 144 106 75 48 29 29 21 11
263 354 213 179 233 234 234 245 271 310 6 354 348 347 344 343 301 248 221 212 208 207 202 198 198 198 197 196 195 194 191 190 188 187 183 181 180 179 175 166 160 162 123 45 15 16 32 41 23
228 228 228 262 236 273 281 272 307 355 349 341 327 324 323 326 318 272 239 220 211 205 200 199 198 196 196 195 192 191 188 188 188 184 179 181 181 177 177 174 170 169 149 67 2 58 62 55 51
267 273 267 253 266 256 282 275 301 326 319 314 308 308 309 304 296 267 230 220 213 208 202 200 197 196 197 193 191 188 189 187 188 182 181 184 178 180 180 174 175 177 181 148 110 85 75 69 54